Cloud_Cover
18 100 100 100 41 76 98 100 100 100 100 100 100 45 46 5 3 0 0 0 0 0 0 0 0 2 1 0 6 11 22 16 8 5 5 11 88 100 100 19 4 0 0 0
5 74 100 16 72 86 95 100 99 100 77 78 100 16 43 5 5 0 0 0 0 0 0 1 32 5 10 22 35 0 4 11 0 0 0 2 4 4 0 4 2 0 0 0
0 4 91 3 79 6 100 66 100 100 71 74 67 88 98 5 1 1 0 0 0 0 0 0 1 4 9 35 16 11 4 1 0 0 0 2 0 0 0 0 0 0 0 0
0 0 8 2 24 56 30 81 56 100 100 86 5 43 1 5 10 1 0 0 0 0 0 0 0 0 3 13 5 0 4 10 6 0 3 0 0 0 0 0 0 0 0 0
0 0 0 0 20 0 3 98 86 100 100 9 42 33 4 5 9 0 0 0 0 0 0 0 0 0 12 21 1 0 48 60 25 0 0 0 0 0 6 1 0 0 0 0
0 0 0 89 11 5 5 38 99 100 68 100 55 100 100 2 2 4 5 0 0 0 0 0 5 0 5 2 0 50 63 11 0 0 0 0 0 2 0 0 0 0 0 0
0 0 1 100 100 83 3 53 82 100 98 100 100 100 100 6 5 5 5 0 0 0 0 0 0 0 12 1 0 34 10 0 0 0 0 0 0 0 0 0 0 0 0 0
0 0 1 100 96 2 0 98 100 100 100 100 100 87 5 0 6 77 5 0 0 0 5 0 0 0 3 0 24 11 0 0 0 0 0 0 0 0 0 0 0 0 0 0
0 0 0 0 56 100 21 100 100 100 100 83 100 100 9 3 11 69 3 0 0 0 2 0 0 0 0 41 25 7 2 5 0 0 0 0 0 0 0 0 0 0 0 0
0 0 0 8 100 19 0 4 100 80 100 100 100 100 84 5 14 100 0 0 0 0 1 3 0 0 0 42 9 0 2 0 0 0 0 0 0 0 0 0 0 0 0 0
0 0 0 100 100 3 21 63 99 100 60 100 100 100 29 83 30 86 5 3 5 7 0 0 0 0 6 28 0 0 0 0 0 0 3 45 25 9 0 0 0 0 0 0
0 0 0 2 62 84 14 100 59 100 100 100 100 100 97 99 23 86 5 5 10 15 7 14 0 0 6 10 0 0 0 22 0 0 97 100 94 5 86 76 8 1 4 5
0 0 0 0 0 73 41 100 100 100 99 100 33 22 5 4 12 6 64 5 5 44 100 97 4 0 6 4 0 0 0 0 0 0 100 97 6 53 100 100 75 65 63 51
0 0 0 0 0 30 100 100 100 100 92 100 46 90 5 16 39 100 96 100 100 100 91 100 38 0 0 0 0 0 0 0 0 0 60 10 24 100 100 100 97 96 100 91
23 25 0 0 0 15 100 100 100 95 100 100 92 93 94 51 89 100 100 100 100 100 82 94 100 100 94 7 0 0 0 0 0 0 4 5 100 100 100 95 63 67 100 49
4 12 0 0 0 17 100 100 100 100 100 100 97 36 57 100 100 100 100 100 100 100 100 83 100 100 99 5 0 0 0 0 0 0 2 5 78 99 100 32 5 2 100 97
5 3 5 0 0 0 96 89 94 100 96 34 1 80 100 100 100 100 100 100 100 100 100 100 100 99 96 5 2 0 0 0 4 4 5 5 5 22 53 64 5 12 11 18
2 2 27 4 0 0 42 100 97 14 3 4 1 3 100 100 100 100 100 100 100 100 100 100 100 100 38 12 5 2 45 100 100 10 5 6 22 40 100 100 97 23 55 90
55 68 100 90 0 0 0 24 100 100 89 29 5 5 100 100 100 100 99 100 100 100 100 100 100 100 93 46 24 5 78 100 100 100 78 51 7 93 100 98 59 100 88 38
61 26 100 100 0 0 0 0 1 6 99 89 78 5 78 100 100 100 100 100 100 100 100 86 100 100 100 69 84 37 5 87 100 100 53 40 81 58 96 99 83 66 7 15
65 99 12 79 1 0 0 0 0 7 98 6 28 100 89 100 100 100 100 100 100 100 100 100 100 100 73 98 40 22 6 55 100 96 98 84 100 100 87 6 39 66 92 97
89 99 11 1 0 0 0 0 0 0 3 15 31 100 100 43 80 100 100 100 100 100 100 100 100 89 94 99 62 76 88 46 41 61 100 100 68 42 68 36 77 100 100 100
96 89 29 1 0 0 0 0 0 0 0 0 3 18 34 10 68 27 19 100 75 49 82 5 5 5 65 100 100 100 77 5 94 100 91 34 97 26 40 97 100 100 100 71
1 4 5 5 2 0 0 0 0 2 1 0 0 0 0 41 92 30 5 2 1 1 0 0 2 2 94 99 100 100 100 100 90 100 100 100 100 100 83 98 100 100 100 100
15 7 5 12 22 23 0 0 2 2 2 4 1 0 0 0 0 0 7 16 18 3 4 14 10 48 18 33 92 14 100 100 100 100 100 100 100 100 100 100 100 99 100 100
63 42 68 39 37 45 25 6 33 28 2 3 10 1 0 0 0 0 0 5 6 62 10 4 25 8 17 6 44 100 100 100 100 100 100 100 97 100 100 100 82 96 100 71
100 99 100 98 96 12 12 35 24 19 12 10 82 57 6 0 0 0 29 86 23 4 8 6 4 28 5 5 5 6 96 98 100 100 77 93 100 100 100 97 100 100 100 100